Location: Knowlton
(51.2333°N, 1.2667°E)
Time: 09:29:40
(UTC+00:00)

NOSS 7 (E) - Pass Details

Date: 18 April 2021
Orbit: 389 x 1778 km, 63.3° (Epoch: 16 May)

Event Time Altitude Azimuth Distance (km) Brightness Sun altitude
Rises 20:22:18 0° 221° (SW) 2,742 8.4 -12.7°
Reaches altitude 10° 20:24:44 10° 221° (SW) 1,697 7.4 -13.0°
Maximum altitude 20:28:21 83° 134° (SE) 437 4.2 -13.4°
Drops below altitude 10° 20:31:25 10° 46° (NE) 1,448 6.9 -13.8°
Sets 20:33:21 0° 46° (NE) 2,291 7.9 -14.0°
